| time (UTC) | temp C | wind direction | speed KPH | gust KPH | rain 1hr cm | rain 24hr cm | rain mn cm | humidity % | barometer mb |
| 20260903111141 | 27 | 217 | 4.8 | 6.4 | 0.00 | 0.00 | 0.00 | 88 | 1013.4 |
| 20260903110127 | 27 | 232 | 3.2 | 8.0 | 0.00 | 0.00 | 0.00 | 88 | 1013.3 |
| 20260903103958 | 27 | 219 | 6.4 | 9.7 | 0.00 | 0.00 | 0.00 | 87 | 1012.9 |
| 20260903102941 | 27 | 225 | 6.4 | 9.7 | 0.00 | 0.00 | 0.00 | 87 | 1013.0 |
| 20260903101930 | 27 | 223 | 6.4 | 9.7 | 0.00 | 0.00 | 0.00 | 87 | 1013.0 |
| 20260903100854 | 27 | 221 | 6.4 | 11.3 | 0.00 | 0.00 | 0.00 | 87 | 1012.8 |
| 20260903095833 | 27 | 215 | 9.7 | 12.9 | 0.00 | 0.00 | 0.00 | 87 | 1012.9 |
| 20260903094819 | 27 | 214 | 11.3 | 19.3 | 0.00 | 0.00 | 0.00 | 86 | 1012.8 |
| 20260903092614 | 28 | 185 | 4.8 | 14.5 | 0.00 | 0.00 | 0.00 | 85 | 1012.8 |
| 20260903091559 | 28 | 143 | 3.2 | 6.4 | 0.00 | 0.00 | 0.00 | 84 | 1012.9 |
| 20260903085357 | 28 | 118 | 3.2 | 8.0 | 0.00 | 1.02 | 0.00 | 85 | 1012.5 |
| 20260903084401 | 28 | 160 | 3.2 | 8.0 | 0.00 | 1.30 | 0.00 | 85 | 1012.5 |
| 20260903083418 | 28 | 107 | 1.6 | 6.4 | 0.00 | 1.30 | 0.00 | 84 | 1012.6 |
| 20260903082417 | 28 | 120 | 1.6 | 8.0 | 0.00 | 1.30 | 0.00 | 84 | 1012.5 |
| 20260903081353 | 28 | 96 | 1.6 | 11.3 | 0.00 | 1.30 | 0.00 | 84 | 1012.5 |
| 20260903073022 | 28 | 119 | 1.6 | 4.8 | 0.00 | 1.30 | 0.00 | 82 | 1012.4 |
| 20260903072012 | 28 | 107 | 1.6 | 6.4 | 0.00 | 1.30 | 0.00 | 81 | 1012.5 |
| 20260903065846 | 28 | 119 | 3.2 | 11.3 | 0.00 | 1.30 | 0.00 | 81 | 1012.5 |
| 20260903064833 | 28 | 132 | 3.2 | 9.7 | 0.00 | 1.30 | 0.00 | 81 | 1012.7 |
| 20260903063832 | 28 | 132 | 3.2 | 12.9 | 0.00 | 1.30 | 0.00 | 82 | 1012.9 |
| 20260903062818 | 28 | 106 | 4.8 | 12.9 | 0.00 | 1.30 | 0.00 | 83 | 1013.1 |
| 20260903061759 | 28 | 115 | 4.8 | 9.7 | 0.00 | 1.30 | 0.00 | 84 | 1013.3 |
| 20260903060724 | 28 | 144 | 3.2 | 9.7 | 0.00 | 1.30 | 0.00 | 83 | 1013.4 |
| 20260903055657 | 28 | 146 | 1.6 | 9.7 | 0.00 | 1.30 | 0.00 | 83 | 1013.6 |
| 20260903054712 | 28 | 111 | 3.2 | 9.7 | 0.00 | 1.30 | 0.00 | 83 | 1013.6 |
| 20260903053707 | 28 | 138 | 1.6 | 11.3 | 0.00 | 1.30 | 0.00 | 84 | 1013.8 |
| 20260903051523 | 28 | 124 | 3.2 | 9.7 | 0.00 | 1.30 | 0.00 | 83 | 1013.9 |
| 20260903050448 | 28 | 158 | 4.8 | 11.3 | 0.00 | 1.30 | 0.00 | 82 | 1014.0 |
| 20260903044311 | 28 | 140 | 6.4 | 12.9 | 0.00 | 1.30 | 0.00 | 82 | 1014.2 |
| 20260903043240 | 28 | 142 | 4.8 | 11.3 | 0.00 | 1.30 | 0.00 | 82 | 1014.3 |
| 20260903041135 | 28 | 116 | 4.8 | 14.5 | 0.00 | 1.30 | 0.00 | 82 | 1014.6 |
| 20260903033924 | 28 | 93 | 4.8 | 11.3 | 0.00 | 1.30 | 1.30 | 82 | 1014.7 |
| 20260903032858 | 28 | 76 | 3.2 | 11.3 | 0.00 | 1.30 | 1.30 | 82 | 1014.7 |
| 20260903030642 | 28 | 142 | 6.4 | 14.5 | 0.00 | 1.30 | 1.30 | 81 | 1014.7 |
| 20260903025658 | 28 | 118 | 6.4 | 14.5 | 0.00 | 1.30 | 1.30 | 80 | 1014.7 |
| 20260903024701 | 28 | 140 | 4.8 | 12.9 | 0.00 | 1.30 | 1.30 | 82 | 1014.6 |
| 20260903023700 | 28 | 103 | 4.8 | 11.3 | 0.00 | 1.30 | 1.30 | 82 | 1014.7 |
| 20260903021538 | 28 | 88 | 3.2 | 11.3 | 0.00 | 1.30 | 1.30 | 82 | 1014.7 |
| 20260903020557 | 28 | 0 | 3.2 | 8.0 | 0.00 | 1.30 | 1.30 | 82 | 1014.6 |
| 20260903015521 | 28 | 106 | 3.2 | 9.7 | 0.00 | 1.30 | 1.30 | 82 | 1014.6 |
| 20260903012230 | 28 | 107 | 4.8 | 12.9 | 0.00 | 1.30 | 1.30 | 81 | 1014.3 |
| 20260903011238 | 28 | 73 | 3.2 | 12.9 | 0.00 | 1.30 | 1.30 | 80 | 1014.3 |
| 20260903010210 | 28 | 96 | 4.8 | 14.5 | 0.00 | 1.30 | 1.30 | 80 | 1014.2 |
| 20260903005138 | 28 | 77 | 4.8 | 14.5 | 0.00 | 1.30 | 1.30 | 80 | 1014.0 |
| 20260903004138 | 28 | 101 | 6.4 | 17.7 | 0.00 | 1.30 | 1.30 | 80 | 1014.0 |
| 20260903003145 | 28 | 51 | 6.4 | 17.7 | 0.00 | 1.30 | 1.30 | 81 | 1013.9 |
| 20260903001033 | 28 | 117 | 4.8 | 12.9 | 0.00 | 1.30 | 1.30 | 81 | 1013.7 |
| 20260903000040 | 28 | 96 | 3.2 | 9.7 | 0.00 | 1.30 | 1.30 | 80 | 1013.8 |
| 20260902232805 | 29 | 110 | 6.4 | 11.3 | 0.00 | 1.30 | 1.30 | 81 | 1013.5 |
| 20260902231800 | 29 | 92 | 4.8 | 11.3 | 0.00 | 1.30 | 1.30 | 80 | 1013.5 |
| 20260902230726 | 29 | 97 | 4.8 | 11.3 | 0.00 | 1.30 | 1.30 | 80 | 1013.3 |
| 20260902225705 | 29 | 117 | 6.4 | 12.9 | 0.00 | 1.30 | 1.30 | 80 | 1013.2 |
| 20260902224649 | 29 | 83 | 4.8 | 14.5 | 0.00 | 1.30 | 1.30 | 80 | 1013.1 |
| 20260902223657 | 29 | 78 | 4.8 | 14.5 | 0.00 | 1.30 | 1.30 | 81 | 1013.2 |
| 20260902222629 | 29 | 96 | 6.4 | 11.3 | 0.00 | 1.30 | 1.30 | 81 | 1013.1 |
| 20260902220521 | 29 | 87 | 6.4 | 12.9 | 0.00 | 1.30 | 1.30 | 81 | 1013.2 |
| 20260902214409 | 29 | 94 | 4.8 | 11.3 | 0.00 | 1.30 | 1.30 | 81 | 1013.5 |
| 20260902212241 | 29 | 89 | 4.8 | 11.3 | 0.00 | 1.30 | 1.30 | 81 | 1013.4 |
| 20260902211235 | 29 | 109 | 4.8 | 12.9 | 0.00 | 1.30 | 1.30 | 81 | 1013.3 |
| 20260902210213 | 29 | 104 | 4.8 | 14.5 | 0.00 | 1.30 | 1.30 | 81 | 1013.3 |
| 20260902202917 | 29 | 111 | 6.4 | 12.9 | 0.00 | 1.30 | 1.30 | 81 | 1013.6 |
| 20260902201930 | 30 | 122 | 6.4 | 12.9 | 0.00 | 1.30 | 1.30 | 79 | 1013.6 |
| 20260902194616 | 29 | 123 | 8.0 | 12.9 | 0.00 | 1.30 | 1.30 | 78 | 1013.7 |
| 20260902193600 | 30 | 63 | 6.4 | 12.9 | 0.00 | 1.30 | 1.30 | 78 | 1013.9 |
| 20260902192538 | 29 | 131 | 4.8 | 11.3 | 0.00 | 1.30 | 1.30 | 78 | 1014.1 |
| 20260902191544 | 29 | 69 | 4.8 | 12.9 | 0.00 | 1.30 | 1.30 | 79 | 1014.2 |
| 20260902190550 | 29 | 68 | 6.4 | 12.9 | 0.00 | 1.30 | 1.30 | 79 | 1014.4 |
| 20260902185556 | 29 | 67 | 6.4 | 12.9 | 0.00 | 1.30 | 1.30 | 78 | 1014.4 |
| 20260902184613 | 29 | 91 | 6.4 | 12.9 | 0.00 | 1.30 | 1.30 | 77 | 1014.4 |
| 20260902183609 | 29 | 126 | 4.8 | 14.5 | 0.00 | 1.30 | 1.30 | 79 | 1014.4 |
| 20260902182544 | 29 | 86 | 6.4 | 14.5 | 0.00 | 1.30 | 1.30 | 79 | 1014.4 |
| 20260902181550 | 29 | 111 | 8.0 | 14.5 | 0.00 | 1.30 | 1.30 | 79 | 1014.4 |
| 20260902180602 | 29 | 134 | 6.4 | 12.9 | 0.00 | 1.30 | 1.30 | 79 | 1014.6 |
| 20260902175543 | 30 | 102 | 3.2 | 12.9 | 0.00 | 1.30 | 1.30 | 79 | 1014.7 |
| 20260902174513 | 30 | 117 | 4.8 | 12.9 | 0.00 | 1.30 | 1.30 | 79 | 1014.8 |
| 20260902173442 | 30 | 108 | 4.8 | 12.9 | 0.00 | 1.30 | 1.30 | 78 | 1014.8 |
| 20260902172449 | 30 | 100 | 6.4 | 12.9 | 0.00 | 1.30 | 1.30 | 78 | 1014.9 |
| 20260902170300 | 30 | 109 | 6.4 | 14.5 | 0.00 | 1.30 | 1.30 | 78 | 1015.0 |
| 20260902165222 | 30 | 125 | 6.4 | 14.5 | 0.00 | 1.30 | 1.30 | 78 | 1015.3 |
| 20260902164218 | 30 | 84 | 6.4 | 12.9 | 0.00 | 1.30 | 1.30 | 79 | 1015.4 |
| 20260902163215 | 30 | 64 | 6.4 | 12.9 | 0.00 | 1.30 | 1.30 | 78 | 1015.6 |
| 20260902162155 | 30 | 51 | 4.8 | 12.9 | 0.00 | 1.30 | 1.30 | 78 | 1015.7 |
| 20260902161122 | 30 | 88 | 4.8 | 11.3 | 0.00 | 1.30 | 1.30 | 79 | 1015.6 |
| 20260902160143 | 30 | 107 | 4.8 | 11.3 | 0.00 | 1.30 | 1.30 | 79 | 1015.8 |
| 20260902155203 | 30 | 89 | 4.8 | 11.3 | 0.00 | 1.30 | 1.30 | 80 | 1015.8 |
| 20260902151839 | 29 | 46 | 3.2 | 11.3 | 0.00 | 1.30 | 1.30 | 81 | 1015.8 |
| 20260902150825 | 29 | 59 | 4.8 | 11.3 | 0.00 | 1.30 | 1.30 | 81 | 1015.7 |
| 20260902145756 | 29 | 55 | 4.8 | 11.3 | 0.00 | 1.30 | 1.30 | 80 | 1015.7 |
| 20260902144727 | 30 | 19 | 4.8 | 11.3 | 0.00 | 1.30 | 1.30 | 79 | 1015.7 |
| 20260902143740 | 30 | 30 | 4.8 | 11.3 | 0.00 | 1.30 | 1.30 | 79 | 1015.6 |
| 20260902141545 | 30 | 70 | 4.8 | 11.3 | 0.00 | 1.30 | 1.30 | 79 | 1015.7 |
| 20260902140516 | 29 | 45 | 3.2 | 11.3 | 0.00 | 1.30 | 1.30 | 79 | 1015.7 |
| 20260902135501 | 29 | 333 | 6.4 | 12.9 | 0.00 | 1.30 | 1.30 | 80 | 1015.5 |
| 20260902134500 | 29 | 0 | 4.8 | 12.9 | 0.00 | 1.30 | 1.30 | 81 | 1015.6 |
| 20260902133457 | 28 | 39 | 3.2 | 8.0 | 0.00 | 1.30 | 1.30 | 83 | 1015.4 |
| 20260902132503 | 28 | 0 | 3.2 | 6.4 | 0.00 | 1.30 | 1.30 | 84 | 1015.5 |
| 20260902131427 | 28 | 24 | 3.2 | 6.4 | 0.00 | 1.30 | 1.30 | 86 | 1015.4 |
| 20260902124139 | 28 | 348 | 4.8 | 8.0 | 0.00 | 1.30 | 1.30 | 88 | 1015.3 |
| 20260902123112 | 27 | 355 | 4.8 | 11.3 | 0.00 | 1.30 | 1.30 | 89 | 1015.2 |
| 20260902122044 | 27 | 334 | 4.8 | 8.0 | 0.00 | 1.30 | 1.30 | 89 | 1015.1 |
| 20260902121026 | 27 | 315 | 4.8 | 6.4 | 0.00 | 1.30 | 1.30 | 89 | 1015.2 |
| 20260902120042 | 27 | 327 | 0.0 | 4.8 | 0.00 | 1.30 | 1.30 | 89 | 1015.2 |
| 20260902115007 | 27 | 350 | 0.0 | 0.0 | 0.00 | 1.30 | 1.30 | 89 | 1015.2 |
| 20260902114007 | 27 | 332 | 0.0 | 0.0 | 0.00 | 1.30 | 1.30 | 88 | 1015.0 |
| 20260902112953 | 27 | 331 | 0.0 | 0.0 | 0.00 | 1.30 | 1.30 | 88 | 1014.8 |
| 20260902111928 | 27 | 342 | 0.0 | 0.0 | 0.00 | 1.30 | 1.30 | 88 | 1014.9 |